Regional Weather Roundup
Issued by NWS

Home | Current Version | Previous Version | Graphics & Text | Print | Product List | Glossary Off
Versions: 1 2 3 4 5 6 7 8 9 10 11 12 13 14 15 16 17 18 19 20 21 22 23 24 25 26 27 28 29 30 31 32 33 34 35 36 37 38 39 40 41 42 43 44 45 46 47 48 49 50

000
ASUS43 KMKX 271221
RWRWI

WISCONSIN REGIONAL WEATHER ROUNDUP
NATIONAL WEATHER SERVICE MILWAUKEE/SULLIVAN WI
700 AM CDT SAT AUG 27 2016

NOTE: "FAIR" INDICATES FEW OR NO CLOUDS BELOW 12,000 FEET WITH NO
SIGNIFICANT WEATHER AND/OR OBSTRUCTIONS TO VISIBILITY.

WIZ001-002-006>008-014>016-023>028-271300-
NORTHWEST WISCONSIN

CITY           SKY/WX    TMP DP  RH WIND       PRES   REMARKS
SUPERIOR ARPT  CLOUDY    54  53  99 CALM      30.10S
6HR MIN TEMP:  49; 6HR MAX TEMP:  55;

ASHLAND        CLOUDY    51  50  96 S3        30.13R
6HR MIN TEMP:  51; 6HR MAX TEMP:  55;

HAYWARD        CLOUDY    54  52  93 NE3       30.12S
6HR MIN TEMP:  53; 6HR MAX TEMP:  56;

SIREN          CLOUDY    58  55  88 CALM      30.10S
6HR MIN TEMP:  56; 6HR MAX TEMP:  58;

CUMBERLAND     CLOUDY    55  54  94 E5        30.10S
RICE LAKE      CLOUDY    58  56  91 E5        30.12S
6HR MIN TEMP:  57; 6HR MAX TEMP:  59;

CHETEK         NOT AVBL
LADYSMITH      CLOUDY    57  55  90 E3        30.14S
6HR MIN TEMP:  57; 6HR MAX TEMP:  58;

EAU CLAIRE     PTCLDY    59  57  93 E5        30.09S
6HR MIN TEMP:  58; 6HR MAX TEMP:  63;

MENOMONIE      PTCLDY    60  58  94 E3        30.09S
6HR MIN TEMP:  60; 6HR MAX TEMP:  61;

NEW RICHMOND   DRIZZLE   59  58  96 E3        30.09R
6HR MIN TEMP:  59; 6HR MAX TEMP:  60;

OSCEOLA        LGT RAIN  60  60 100 CALM      30.11R
6HR MIN TEMP:  59; 6HR MAX TEMP:  61;

$$

WIZ003>005-009-010-017-018-271300-
NORTH CENTRAL WISCONSIN

CITY           SKY/WX    TMP DP  RH WIND       PRES   REMARKS
MANITOWISH WTR NOT AVBL
ARBOR VITAE    CLOUDY    58  54  87 CALM      30.15S
6HR MIN TEMP:  55; 6HR MAX TEMP:  58;

WOODRUFF       CLOUDY    58  54  87 CALM      30.15S
6HR MIN TEMP:  55; 6HR MAX TEMP:  58;

RHINELANDER    CLOUDY    57  56  96 SE3       30.15F
6HR MIN TEMP:  56; 6HR MAX TEMP:  57; 6HR PCP: TRACE;

EAGLE RIVER    CLOUDY    55  54  98 CALM      30.15S
6HR MIN TEMP:  52; 6HR MAX TEMP:  55;

LAND O LAKES   MOCLDY    52  52 100 CALM      30.17R
6HR MIN TEMP:  49; 6HR MAX TEMP:  52;

PHILLIPS       CLOUDY    55  54  95 CALM      30.13S
6HR MIN TEMP:  53; 6HR MAX TEMP:  55;

TOMAHAWK       PTCLDY    55  53  95 E3        30.14F
6HR MIN TEMP:  52; 6HR MAX TEMP:  56;

MEDFORD        CLOUDY    56  56 100 E5        30.12F
6HR MIN TEMP:  56; 6HR MAX TEMP:  57; 6HR PCP:  0.01;

MERRILL        CLOUDY    57  57 100 CALM      30.14S
6HR MIN TEMP:  57; 6HR MAX TEMP:  58; 6HR PCP:  0.01;

$$

WIZ029-030-035-036-043>047-271300-
CENTRAL WISCONSIN

CITY           SKY/WX    TMP DP  RH WIND       PRES   REMARKS
WAUSAU         CLOUDY    59  57  93 E3        30.12S
6HR MIN TEMP:  58; 6HR MAX TEMP:  60; 6HR PCP:  0.09;

MOSINEE        PTCLDY    57  57 100 E5        30.14S
MARSHFIELD     CLOUDY    59  56  89 NE6       30.11S
6HR MIN TEMP:  59; 6HR MAX TEMP:  62; 6HR PCP: TRACE;

STEVENS POINT  CLOUDY    58  57  99 E5        30.13S
6HR MIN TEMP:  57; 6HR MAX TEMP:  59; 6HR PCP:  0.14;

WAUPACA        LGT RAIN  62  62  99 CALM      30.14R
6HR MIN TEMP:  62; 6HR MAX TEMP:  64;

WAUTOMA        LGT RAIN  61  59  94 NE7       30.13F
6HR MIN TEMP:  60; 6HR MAX TEMP:  63; 6HR PCP: TRACE;

WISC RAPIDS    CLOUDY    60  58  92 E7        30.12F
6HR MIN TEMP:  59; 6HR MAX TEMP:  62; 6HR PCP:  0.17;

CAMP DOUGLAS   DRIZZLE   61  59  94 E7        30.10S
                                      6HR PCP:  0.29;

$$

WIZ011>013-019>022-031-037>040-048>050-271300-
NORTHEAST WISCONSIN

CITY           SKY/WX    TMP DP  RH WIND       PRES   REMARKS
ANTIGO         CLOUDY    57  57 100 SE6       30.15F
6HR MIN TEMP:  56; 6HR MAX TEMP:  58; 6HR PCP:  0.10;

SHAWANO        CLOUDY    63  60  91 CALM      30.14S
6HR MIN TEMP:  62; 6HR MAX TEMP:  64; 6HR PCP:  0.15;

OCONTO         NOT AVBL
STURGEON BAY   CLOUDY    63  61  93 CALM      30.15F
6HR MIN TEMP:  62; 6HR MAX TEMP:  64; 6HR PCP: TRACE;

GREEN BAY      CLOUDY    62  62 100 E6        30.13S
6HR MIN TEMP:  61; 6HR MAX TEMP:  63; 6HR PCP:  0.03;

MANITOWOC      RAIN      63  61  94 MISG      30.14S FOG
6HR MIN TEMP:  61; 6HR MAX TEMP:  63;

APPLETON       LGT RAIN  63  61  94 E6        30.12R
CLINTONVILLE   CLOUDY    61  59  94 CALM      30.14S
OSHKOSH        HVY RAIN  62  60  93 SE9       30.13R FOG
6HR MIN TEMP:  62; 6HR MAX TEMP:  66; 6HR PCP:  0.38;

$$

WIZ032>034-041-042-053>061-271300-
SOUTHWEST WISCONSIN

CITY           SKY/WX    TMP DP  RH WIND       PRES   REMARKS
LA CROSSE      CLOUDY    64  61  90 E5        30.08R
6HR MIN TEMP:  63; 6HR MAX TEMP:  65; 6HR PCP: TRACE;

SPARTA         CLOUDY    60  59  97 E5        30.10S
6HR MIN TEMP:  60; 6HR MAX TEMP:  61; 6HR PCP:  0.04;

VIROQUA        CLOUDY    60  60 100 E9        30.08R VSB 1
6HR MIN TEMP:  59; 6HR MAX TEMP:  61; 6HR PCP:  0.14;

BOSCOBEL       LGT RAIN  64  62  93 NE7       30.06S
6HR MIN TEMP:  63; 6HR MAX TEMP:  65; 6HR PCP:  0.46;

PRAIRIE DU CHI CLOUDY    62  61  96 E8        30.04S
6HR MIN TEMP:  60; 6HR MAX TEMP:  63; 6HR PCP:  0.47;

PLATTEVILLE    CLOUDY    63  63 100 E13       30.06S
6HR MIN TEMP:  63; 6HR MAX TEMP:  64; 6HR PCP:  0.56;

$$

WIZ056-057-062-063-064-067-068-271300-
SOUTH CENTRAL WISCONSIN

CITY           SKY/WX    TMP DP  RH WIND       PRES   REMARKS
REEDSBURG      NOT AVBL
BARABOO/DELLS  RAIN      61  59  94 E12       30.10F
6HR MIN TEMP:  61; 6HR MAX TEMP:  63; 6HR PCP:  0.37;

LONE ROCK      LGT RAIN  63  62  97 E7        30.09R
6HR MIN TEMP:  63; 6HR MAX TEMP:  66; 6HR PCP:  0.60;

MINERAL POINT  LGT RAIN  63  63 100 E12       30.07F
MADISON        LGT RAIN  61  60  97 NE8       30.09R
6HR MIN TEMP:  61; 6HR MAX TEMP:  66; 6HR PCP:  0.94;

MIDDLETON      CLOUDY    62  62 100 E8        30.09F
6HR MIN TEMP:  62; 6HR MAX TEMP:  67; 6HR PCP:  1.01;

WATERTOWN      LGT RAIN  61  61 100 E10       30.09S
6HR MIN TEMP:  61; 6HR MAX TEMP:  65; 6HR PCP:  0.38;

MONROE         CLOUDY    61  61 100 E9        30.08R
JANESVILLE     CLOUDY    64  64 100 NE10      30.07R
$$

WIZ051-052-058>065-066-070>072-271300-
SOUTHEAST WISCONSIN

CITY           SKY/WX    TMP DP  RH WIND       PRES   REMARKS
MILWAUKEE      RAIN      65  62  90 N12       30.11R
6HR MIN TEMP:  64; 6HR MAX TEMP:  69; 6HR PCP:  0.07;

WAUKESHA       DRIZZLE   61  61 100 NE8       30.12R
MILWAUKEE/TIMM CLOUDY    61  59  94 NE7       30.12R
RACINE         LGT RAIN  68  63  84 E7        30.12R
6HR MIN TEMP:  67; 6HR MAX TEMP:  70; 6HR PCP:  0.02;

BURLINGTON     DRIZZLE   63  61  94 NE6       30.10R
6HR MIN TEMP:  63; 6HR MAX TEMP:  64; 6HR PCP:  0.06;

KENOSHA        LGT RAIN  68  66  93 E6        30.11R
6HR MIN TEMP:  66; 6HR MAX TEMP:  68; 6HR PCP:  0.08;

FOND DU LAC    HVY RAIN  62  60  93 E5        30.14R
6HR MIN TEMP:  62; 6HR MAX TEMP:  66; 6HR PCP:  0.56;

SHEBOYGAN      HVY RAIN  61  59  93 E8        30.13R FOG
6HR MIN TEMP:  61; 6HR MAX TEMP:  63; 6HR PCP:  0.33;

WEST BEND      LGT RAIN  59  59 100 E8        30.12F
JUNEAU         RAIN      60  59  97 NE7       30.12S
6HR MIN TEMP:  60; 6HR MAX TEMP:  64; 6HR PCP:  0.62;

$$

LSZ147-162-271300-
LAKE SUPERIOR

STATION/POSITION TIME  TEMP    WIND        PRES    WAVE
                       AIR SEA DIR/SP/G            HT/PER
                 (UTC) (F)     (DEG/KT/KT) (MB)    (FT/S)
W MID LAKE BUOY  1150   67 67  190/  6/  6 1019.7R   1
DEVILS ISLAND    1200   63     150/  4/  5 1019.7F
PORT WING        1100   58     130/  2/  3 1019.6S
SAXON HARBOR     1140   58     180/  5/  7 1019.6R
$$

LMZ867-665-643>646-271300-
LAKE MICHIGAN

STATION/POSITION TIME  TEMP    WIND        PRES    WAVE
                       AIR SEA DIR/SP/G            HT/PER
                 (UTC) (F)     (DEG/KT/KT) (MB)    (FT/S)
CHAMBERS ISLAND  1100   62      CALM  /  1 1020.7F
S GREEN BAY BUOY 1200   66 71   70/ 10/ 12 1019.7
N MID LAKE BUOY  1150   69 7C1F1C2F2C3F3C4F4C5F5C6F6C7F7C8M1C9M2Ca!



USA.gov is the U.S. government's official web portal to all federal, state and local government web resources and services.